| time (UTC) | temp F | wind direction | speed MPH | gust MPH | rain 1hr in | rain 24hr in | rain mn in | humidity % | barometer mb |
| 20260904075625 | 77 | 128 | 3.0 | 6.0 | 0.00 | 0.00 | 0.00 | 84 | 1013.1 |
| 20260904075125 | 77 | 135 | 4.0 | 6.0 | 0.00 | 0.00 | 0.00 | 84 | 1013.0 |
| 20260904074625 | 77 | 154 | 4.0 | 6.0 | 0.00 | 0.00 | 0.00 | 83 | 1013.1 |
| 20260904074125 | 77 | 136 | 5.0 | 6.0 | 0.00 | 0.00 | 0.00 | 83 | 1013.2 |
| 20260904073620 | 77 | 137 | 4.0 | 6.0 | 0.00 | 0.00 | 0.00 | 83 | 1013.1 |
| 20260904073116 | 78 | 154 | 4.0 | 7.0 | 0.00 | 0.00 | 0.00 | 83 | 1013.0 |
| 20260904072611 | 78 | 154 | 5.0 | 6.0 | 0.00 | 0.00 | 0.00 | 83 | 1013.0 |
| 20260904072107 | 78 | 150 | 5.0 | 6.0 | 0.00 | 0.00 | 0.00 | 83 | 1013.1 |
| 20260904071602 | 78 | 140 | 6.0 | 7.0 | 0.00 | 0.00 | 0.00 | 83 | 1013.0 |
| 20260904071057 | 78 | 149 | 5.0 | 8.0 | 0.00 | 0.00 | 0.00 | 82 | 1013.1 |
| 20260904070555 | 78 | 159 | 4.0 | 7.0 | 0.00 | 0.00 | 0.00 | 82 | 1013.0 |
| 20260904070051 | 78 | 144 | 5.0 | 9.0 | 0.00 | 0.00 | 0.00 | 82 | 1013.2 |
| 20260904065546 | 78 | 161 | 6.0 | 7.0 | 0.00 | 0.00 | 0.00 | 82 | 1013.2 |
| 20260904065042 | 78 | 145 | 6.0 | 8.0 | 0.00 | 0.00 | 0.00 | 81 | 1013.3 |
| 20260904064539 | 78 | 164 | 6.0 | 6.0 | 0.00 | 0.00 | 0.00 | 82 | 1013.3 |
| 20260904064038 | 78 | 150 | 7.0 | 9.0 | 0.00 | 0.00 | 0.00 | 81 | 1013.4 |
| 20260904063535 | 78 | 152 | 7.0 | 9.0 | 0.00 | 0.00 | 0.00 | 81 | 1013.3 |
| 20260904063029 | 78 | 138 | 6.0 | 8.0 | 0.00 | 0.00 | 0.00 | 80 | 1013.2 |
| 20260904062525 | 78 | 152 | 6.0 | 8.0 | 0.00 | 0.00 | 0.00 | 80 | 1013.1 |
| 20260904062021 | 78 | 152 | 7.0 | 9.0 | 0.00 | 0.00 | 0.00 | 80 | 1013.2 |
| 20260904061516 | 78 | 135 | 6.0 | 9.0 | 0.00 | 0.00 | 0.00 | 80 | 1013.3 |
| 20260904061013 | 78 | 164 | 6.0 | 8.0 | 0.00 | 0.00 | 0.00 | 80 | 1013.2 |
| 20260904060509 | 78 | 149 | 7.0 | 8.0 | 0.00 | 0.00 | 0.00 | 80 | 1013.3 |
| 20260904060004 | 78 | 145 | 5.0 | 9.0 | 0.00 | 0.00 | 0.00 | 79 | 1013.3 |
| 20260904055459 | 78 | 149 | 5.0 | 9.0 | 0.00 | 0.00 | 0.00 | 79 | 1013.3 |
| 20260904054955 | 78 | 144 | 8.0 | 9.0 | 0.00 | 0.00 | 0.00 | 79 | 1013.2 |
| 20260904054450 | 78 | 153 | 6.0 | 7.0 | 0.00 | 0.00 | 0.00 | 79 | 1013.1 |
| 20260904053946 | 79 | 149 | 8.0 | 8.0 | 0.00 | 0.00 | 0.00 | 78 | 1013.1 |
| 20260904053445 | 79 | 162 | 6.0 | 9.0 | 0.00 | 0.00 | 0.00 | 78 | 1013.3 |
| 20260904052941 | 79 | 149 | 7.0 | 9.0 | 0.00 | 0.00 | 0.00 | 78 | 1013.2 |
| 20260904052437 | 79 | 179 | 7.0 | 9.0 | 0.00 | 0.00 | 0.00 | 78 | 1013.1 |
| 20260904051934 | 79 | 148 | 7.0 | 9.0 | 0.00 | 0.00 | 0.00 | 77 | 1012.9 |
| 20260904051430 | 79 | 155 | 6.0 | 6.0 | 0.00 | 0.00 | 0.00 | 78 | 1013.2 |
| 20260904050929 | 79 | 144 | 7.0 | 9.0 | 0.00 | 0.00 | 0.00 | 77 | 1013.3 |
| 20260904050425 | 79 | 140 | 5.0 | 9.0 | 0.00 | 0.00 | 0.00 | 77 | 1013.3 |
| 20260904045925 | 79 | 139 | 8.0 | 8.0 | 0.00 | 0.01 | 0.01 | 76 | 1013.4 |
| 20260904045421 | 79 | 155 | 8.0 | 10.0 | 0.00 | 0.01 | 0.01 | 76 | 1013.4 |
| 20260904044920 | 79 | 147 | 4.0 | 8.0 | 0.00 | 0.01 | 0.01 | 76 | 1013.1 |
| 20260904044417 | 79 | 140 | 4.0 | 7.0 | 0.00 | 0.01 | 0.01 | 76 | 1013.3 |
| 20260904043913 | 79 | 149 | 4.0 | 8.0 | 0.00 | 0.01 | 0.01 | 75 | 1013.4 |
| 20260904043409 | 79 | 164 | 5.0 | 6.0 | 0.00 | 0.01 | 0.01 | 76 | 1013.4 |
| 20260904042904 | 79 | 151 | 4.0 | 6.0 | 0.00 | 0.01 | 0.01 | 75 | 1013.4 |
| 20260904042400 | 79 | 162 | 7.0 | 8.0 | 0.00 | 0.01 | 0.01 | 75 | 1013.3 |
| 20260904041855 | 79 | 165 | 5.0 | 7.0 | 0.00 | 0.01 | 0.01 | 76 | 1013.4 |
| 20260904041351 | 79 | 162 | 5.0 | 6.0 | 0.00 | 0.01 | 0.01 | 76 | 1013.4 |
| 20260904040847 | 79 | 162 | 5.0 | 5.0 | 0.00 | 0.01 | 0.01 | 76 | 1013.3 |
| 20260904040342 | 80 | 140 | 4.0 | 5.0 | 0.00 | 0.01 | 0.01 | 75 | 1013.3 |
| 20260904035838 | 80 | 137 | 6.0 | 6.0 | 0.00 | 0.01 | 0.01 | 75 | 1013.3 |
| 20260904035334 | 80 | 155 | 4.0 | 8.0 | 0.00 | 0.01 | 0.01 | 74 | 1013.4 |
| 20260904034833 | 80 | 153 | 8.0 | 9.0 | 0.00 | 0.01 | 0.01 | 73 | 1013.5 |
| 20260904034328 | 80 | 154 | 4.0 | 7.0 | 0.00 | 0.01 | 0.01 | 73 | 1013.4 |
| 20260904033824 | 80 | 156 | 6.0 | 7.0 | 0.00 | 0.01 | 0.01 | 73 | 1013.5 |
| 20260904033320 | 80 | 150 | 4.0 | 5.0 | 0.00 | 0.01 | 0.01 | 73 | 1013.4 |
| 20260904032817 | 80 | 135 | 5.0 | 5.0 | 0.00 | 0.01 | 0.01 | 73 | 1013.3 |
| 20260904032316 | 80 | 160 | 4.0 | 6.0 | 0.00 | 0.01 | 0.01 | 73 | 1013.3 |
| 20260904031810 | 81 | 151 | 5.0 | 6.0 | 0.00 | 0.01 | 0.01 | 73 | 1013.3 |
| 20260904031306 | 81 | 164 | 5.0 | 9.0 | 0.00 | 0.01 | 0.01 | 73 | 1013.5 |
| 20260904030802 | 81 | 152 | 5.0 | 6.0 | 0.00 | 0.01 | 0.01 | 74 | 1013.3 |
| 20260904030257 | 81 | 155 | 6.0 | 9.0 | 0.00 | 0.01 | 0.01 | 73 | 1013.3 |
| 20260904025753 | 81 | 167 | 7.0 | 9.0 | 0.00 | 0.01 | 0.01 | 73 | 1013.3 |
| 20260904025248 | 81 | 159 | 6.0 | 9.0 | 0.00 | 0.01 | 0.01 | 72 | 1013.1 |
| 20260904024743 | 81 | 165 | 6.0 | 9.0 | 0.00 | 0.01 | 0.01 | 73 | 1013.2 |
| 20260904024239 | 82 | 141 | 10.0 | 11.0 | 0.00 | 0.01 | 0.01 | 73 | 1013.1 |
| 20260904023735 | 82 | 154 | 8.0 | 9.0 | 0.00 | 0.01 | 0.01 | 74 | 1013.1 |
| 20260904023231 | 82 | 154 | 9.0 | 10.0 | 0.00 | 0.01 | 0.01 | 74 | 1012.9 |
| 20260904022730 | 82 | 142 | 8.0 | 9.0 | 0.00 | 0.01 | 0.01 | 74 | 1012.8 |
| 20260904022228 | 82 | 160 | 4.0 | 8.0 | 0.00 | 0.01 | 0.01 | 74 | 1012.8 |
| 20260904021723 | 82 | 177 | 4.0 | 8.0 | 0.00 | 0.01 | 0.01 | 74 | 1012.7 |
| 20260904021218 | 82 | 167 | 3.0 | 6.0 | 0.00 | 0.01 | 0.01 | 74 | 1012.6 |
| 20260904020714 | 82 | 153 | 6.0 | 6.0 | 0.00 | 0.01 | 0.01 | 74 | 1012.5 |
| 20260904020213 | 82 | 176 | 3.0 | 6.0 | 0.00 | 0.01 | 0.01 | 73 | 1012.6 |
| 20260904015712 | 82 | 164 | 6.0 | 9.0 | 0.00 | 0.01 | 0.01 | 73 | 1012.6 |
| 20260904015207 | 83 | 164 | 7.0 | 10.0 | 0.00 | 0.01 | 0.01 | 72 | 1012.4 |
| 20260904014705 | 83 | 156 | 6.0 | 10.0 | 0.00 | 0.01 | 0.01 | 72 | 1012.3 |
| 20260904014200 | 83 | 153 | 4.0 | 9.0 | 0.00 | 0.01 | 0.01 | 72 | 1012.2 |
| 20260904013657 | 83 | 147 | 8.0 | 11.0 | 0.00 | 0.01 | 0.01 | 72 | 1012.2 |
| 20260904013152 | 83 | 161 | 7.0 | 9.0 | 0.00 | 0.01 | 0.01 | 72 | 1012.1 |
| 20260904012648 | 83 | 150 | 7.0 | 9.0 | 0.00 | 0.01 | 0.01 | 71 | 1012.0 |
| 20260904012147 | 84 | 157 | 9.0 | 12.0 | 0.00 | 0.01 | 0.01 | 70 | 1012.1 |
| 20260904011646 | 84 | 154 | 7.0 | 11.0 | 0.00 | 0.01 | 0.01 | 69 | 1011.8 |
| 20260904011142 | 84 | 151 | 8.0 | 10.0 | 0.00 | 0.01 | 0.01 | 69 | 1011.8 |
| 20260904010638 | 84 | 168 | 5.0 | 15.0 | 0.00 | 0.01 | 0.01 | 69 | 1012.0 |
| 20260904010134 | 84 | 165 | 9.0 | 10.0 | 0.00 | 0.01 | 0.01 | 69 | 1012.0 |
| 20260904005629 | 84 | 152 | 9.0 | 10.0 | 0.00 | 0.01 | 0.01 | 70 | 1011.9 |
| 20260904005125 | 85 | 156 | 7.0 | 13.0 | 0.00 | 0.01 | 0.01 | 71 | 1011.8 |
| 20260904004620 | 85 | 170 | 9.0 | 12.0 | 0.00 | 0.01 | 0.01 | 71 | 1011.8 |
| 20260904004120 | 85 | 156 | 6.0 | 12.0 | 0.00 | 0.01 | 0.01 | 71 | 1011.7 |
| 20260904003616 | 86 | 166 | 10.0 | 13.0 | 0.00 | 0.01 | 0.01 | 70 | 1011.7 |
| 20260904003112 | 86 | 158 | 6.0 | 11.0 | 0.00 | 0.01 | 0.01 | 70 | 1011.7 |
| 20260904002608 | 86 | 156 | 8.0 | 11.0 | 0.00 | 0.01 | 0.01 | 69 | 1011.7 |
| 20260904002108 | 86 | 120 | 4.0 | 12.0 | 0.00 | 0.01 | 0.01 | 68 | 1011.8 |
| 20260904001558 | 87 | 154 | 7.0 | 13.0 | 0.00 | 0.01 | 0.01 | 67 | 1011.7 |
| 20260904001056 | 87 | 140 | 6.0 | 13.0 | 0.00 | 0.01 | 0.01 | 67 | 1011.6 |
| 20260904000551 | 87 | 141 | 9.0 | 12.0 | 0.00 | 0.01 | 0.01 | 66 | 1011.5 |
| 20260904000047 | 87 | 149 | 11.0 | 15.0 | 0.00 | 0.01 | 0.01 | 67 | 1011.5 |
| 20260903235547 | 87 | 159 | 9.0 | 11.0 | 0.00 | 0.01 | 0.01 | 66 | 1011.7 |
| 20260903235043 | 87 | 139 | 10.0 | 13.0 | 0.00 | 0.01 | 0.01 | 66 | 1011.7 |
| 20260903234538 | 88 | 151 | 10.0 | 12.0 | 0.00 | 0.01 | 0.01 | 65 | 1011.7 |
| 20260903234033 | 88 | 139 | 7.0 | 10.0 | 0.00 | 0.01 | 0.01 | 64 | 1011.7 |
| 20260903233529 | 88 | 156 | 12.0 | 13.0 | 0.00 | 0.01 | 0.01 | 64 | 1011.6 |
| 20260903233025 | 89 | 123 | 7.0 | 16.0 | 0.00 | 0.01 | 0.01 | 63 | 1011.4 |
| 20260903232520 | 89 | 157 | 9.0 | 11.0 | 0.00 | 0.01 | 0.01 | 62 | 1011.4 |
| 20260903232015 | 89 | 159 | 7.0 | 10.0 | 0.00 | 0.01 | 0.01 | 60 | 1011.3 |
| 20260903231509 | 89 | 146 | 5.0 | 14.0 | 0.00 | 0.01 | 0.01 | 61 | 1011.5 |
| 20260903231004 | 89 | 159 | 9.0 | 16.0 | 0.00 | 0.01 | 0.01 | 59 | 1011.5 |
| 20260903230500 | 89 | 147 | 9.0 | 15.0 | 0.00 | 0.01 | 0.01 | 59 | 1011.4 |
| 20260903225956 | 89 | 151 | 7.0 | 13.0 | 0.00 | 0.01 | 0.01 | 60 | 1011.5 |
| 20260903225451 | 88 | 119 | 4.0 | 17.0 | 0.00 | 0.01 | 0.01 | 62 | 1011.4 |
| 20260903224948 | 88 | 155 | 9.0 | 15.0 | 0.00 | 0.01 | 0.01 | 62 | 1011.4 |
| 20260903224443 | 89 | 156 | 11.0 | 17.0 | 0.00 | 0.01 | 0.01 | 62 | 1011.4 |
| 20260903223939 | 89 | 164 | 7.0 | 15.0 | 0.00 | 0.01 | 0.01 | 63 | 1011.5 |
| 20260903223438 | 89 | 150 | 14.0 | 16.0 | 0.00 | 0.01 | 0.01 | 63 | 1011.3 |
| 20260903222937 | 90 | 119 | 3.0 | 10.0 | 0.00 | 0.01 | 0.01 | 62 | 1011.7 |
| 20260903222433 | 89 | 103 | 8.0 | 15.0 | 0.00 | 0.01 | 0.01 | 62 | 1011.5 |
| 20260903221932 | 89 | 135 | 12.0 | 14.0 | 0.00 | 0.01 | 0.01 | 63 | 1011.5 |
| 20260903221432 | 89 | 162 | 8.0 | 13.0 | 0.00 | 0.01 | 0.01 | 64 | 1011.5 |
| 20260903220929 | 89 | 151 | 10.0 | 15.0 | 0.00 | 0.01 | 0.01 | 63 | 1011.5 |
| 20260903220424 | 88 | 159 | 10.0 | 13.0 | 0.00 | 0.01 | 0.01 | 64 | 1011.6 |
| 20260903215921 | 89 | 121 | 4.0 | 14.0 | 0.00 | 0.01 | 0.01 | 64 | 1011.6 |
| 20260903215419 | 89 | 125 | 7.0 | 11.0 | 0.00 | 0.01 | 0.01 | 63 | 1011.7 |
| 20260903214917 | 89 | 173 | 6.0 | 8.0 | 0.00 | 0.01 | 0.01 | 64 | 1011.7 |
| 20260903214413 | 88 | 153 | 11.0 | 11.0 | 0.00 | 0.01 | 0.01 | 64 | 1011.8 |
| 20260903213912 | 88 | 133 | 6.0 | 11.0 | 0.00 | 0.01 | 0.01 | 64 | 1011.7 |
| 20260903213408 | 88 | 151 | 7.0 | 11.0 | 0.00 | 0.01 | 0.01 | 64 | 1011.9 |
| 20260903212904 | 89 | 153 | 5.0 | 7.0 | 0.00 | 0.01 | 0.01 | 64 | 1011.8 |
| 20260903212359 | 88 | 140 | 7.0 | 11.0 | 0.00 | 0.01 | 0.01 | 64 | 1011.9 |
| 20260903211858 | 89 | 150 | 4.0 | 14.0 | 0.00 | 0.01 | 0.01 | 63 | 1011.8 |
| 20260903211354 | 90 | 144 | 5.0 | 14.0 | 0.00 | 0.01 | 0.01 | 61 | 1012.0 |
| 20260903210851 | 89 | 151 | 5.0 | 9.0 | 0.00 | 0.01 | 0.01 | 61 | 1011.8 |
| 20260903210350 | 89 | 151 | 10.0 | 11.0 | 0.00 | 0.01 | 0.01 | 61 | 1012.2 |
| 20260903205850 | 89 | 166 | 12.0 | 14.0 | 0.00 | 0.01 | 0.01 | 62 | 1012.1 |
| 20260903205350 | 90 | 165 | 7.0 | 11.0 | 0.00 | 0.01 | 0.01 | 61 | 1012.0 |
| 20260903204845 | 89 | 177 | 6.0 | 9.0 | 0.00 | 0.01 | 0.01 | 63 | 1011.9 |
| 20260903204341 | 90 | 164 | 9.0 | 10.0 | 0.00 | 0.01 | 0.01 | 61 | 1012.1 |
| 20260903203836 | 89 | 147 | 5.0 | 12.0 | 0.00 | 0.01 | 0.01 | 63 | 1012.3 |
| 20260903203332 | 90 | 138 | 2.0 | 5.0 | 0.00 | 0.01 | 0.01 | 61 | 1012.2 |
| 20260903202831 | 89 | 160 | 13.0 | 16.0 | 0.00 | 0.01 | 0.01 | 64 | 1012.4 |
| 20260903202328 | 90 | 151 | 11.0 | 12.0 | 0.00 | 0.01 | 0.01 | 62 | 1012.5 |
| 20260903201826 | 89 | 162 | 10.0 | 17.0 | 0.00 | 0.01 | 0.01 | 63 | 1012.6 |
| 20260903201322 | 88 | 121 | 6.0 | 11.0 | 0.00 | 0.01 | 0.01 | 63 | 1012.7 |
| 20260903200820 | 90 | 165 | 7.0 | 11.0 | 0.00 | 0.01 | 0.01 | 61 | 1012.7 |
| 20260903200316 | 88 | 149 | 11.0 | 19.0 | 0.00 | 0.01 | 0.01 | 64 | 1012.6 |
| 20260903195811 | 87 | 178 | 5.0 | 11.0 | 0.00 | 0.01 | 0.01 | 66 | 1012.8 |
| 20260903195308 | 87 | 163 | 8.0 | 13.0 | 0.00 | 0.01 | 0.01 | 65 | 1012.6 |
| 20260903194802 | 88 | 158 | 15.0 | 16.0 | 0.00 | 0.01 | 0.01 | 64 | 1012.7 |
| 20260903194258 | 88 | 197 | 10.0 | 15.0 | 0.00 | 0.01 | 0.01 | 63 | 1012.7 |
| 20260903193754 | 88 | 170 | 6.0 | 21.0 | 0.00 | 0.01 | 0.01 | 64 | 1012.7 |
| 20260903193249 | 88 | 208 | 9.0 | 16.0 | 0.00 | 0.01 | 0.01 | 63 | 1012.8 |
| 20260903192745 | 87 | 177 | 7.0 | 19.0 | 0.00 | 0.01 | 0.01 | 65 | 1013.1 |
| 20260903192235 | 87 | 198 | 8.0 | 12.0 | 0.00 | 0.01 | 0.01 | 66 | 1012.8 |
| 20260903191731 | 87 | 167 | 9.0 | 15.0 | 0.00 | 0.01 | 0.01 | 66 | 1013.0 |
| 20260903191226 | 86 | 176 | 7.0 | 17.0 | 0.00 | 0.01 | 0.01 | 68 | 1013.0 |
| 20260903190720 | 86 | 153 | 14.0 | 17.0 | 0.00 | 0.01 | 0.01 | 68 | 1013.3 |
| 20260903190220 | 85 | 142 | 2.0 | 12.0 | 0.00 | 0.01 | 0.01 | 70 | 1013.3 |
| 20260903185715 | 86 | 155 | 6.0 | 8.0 | 0.00 | 0.01 | 0.01 | 70 | 1013.5 |
| 20260903185210 | 86 | 150 | 14.0 | 15.0 | 0.00 | 0.01 | 0.01 | 70 | 1013.6 |
| 20260903184706 | 85 | 114 | 6.0 | 12.0 | 0.00 | 0.01 | 0.01 | 70 | 1013.5 |
| 20260903184202 | 85 | 152 | 5.0 | 11.0 | 0.00 | 0.01 | 0.01 | 72 | 1013.6 |
| 20260903183701 | 84 | 132 | 10.0 | 17.0 | 0.00 | 0.01 | 0.01 | 72 | 1013.6 |
| 20260903183156 | 86 | 119 | 7.0 | 12.0 | 0.00 | 0.01 | 0.01 | 71 | 1013.6 |
| 20260903182655 | 84 | 131 | 4.0 | 14.0 | 0.00 | 0.01 | 0.01 | 74 | 1013.6 |
| 20260903182151 | 84 | 155 | 8.0 | 13.0 | 0.00 | 0.01 | 0.01 | 73 | 1013.9 |
| 20260903181649 | 83 | 138 | 13.0 | 16.0 | 0.00 | 0.01 | 0.01 | 73 | 1013.9 |
| 20260903181144 | 83 | 156 | 9.0 | 15.0 | 0.00 | 0.01 | 0.01 | 75 | 1013.9 |
| 20260903180640 | 82 | 154 | 15.0 | 22.0 | 0.00 | 0.01 | 0.01 | 75 | 1013.9 |
| 20260903180140 | 82 | 157 | 15.0 | 16.0 | 0.00 | 0.01 | 0.01 | 75 | 1014.1 |
| 20260903175638 | 82 | 180 | 7.0 | 21.0 | 0.00 | 0.01 | 0.01 | 76 | 1014.1 |
| 20260903175138 | 82 | 150 | 15.0 | 21.0 | 0.00 | 0.01 | 0.01 | 76 | 1014.1 |
| 20260903174633 | 82 | 145 | 13.0 | 19.0 | 0.00 | 0.01 | 0.01 | 77 | 1014.2 |
| 20260903174128 | 82 | 154 | 11.0 | 14.0 | 0.00 | 0.01 | 0.01 | 78 | 1014.3 |
| 20260903173623 | 81 | 164 | 11.0 | 20.0 | 0.00 | 0.01 | 0.01 | 78 | 1014.5 |
| 20260903173119 | 81 | 160 | 11.0 | 17.0 | 0.00 | 0.01 | 0.01 | 78 | 1014.4 |
| 20260903172619 | 81 | 168 | 17.0 | 19.0 | 0.00 | 0.01 | 0.01 | 78 | 1014.6 |
| 20260903172115 | 81 | 156 | 23.0 | 25.0 | 0.00 | 0.01 | 0.01 | 79 | 1014.5 |
| 20260903171614 | 81 | 141 | 13.0 | 23.0 | 0.00 | 0.01 | 0.01 | 79 | 1014.7 |
| 20260903171111 | 81 | 151 | 14.0 | 18.0 | 0.00 | 0.01 | 0.01 | 79 | 1014.5 |
| 20260903170609 | 81 | 166 | 13.0 | 19.0 | 0.00 | 0.01 | 0.01 | 79 | 1014.6 |
| 20260903170105 | 81 | 171 | 11.0 | 19.0 | 0.00 | 0.01 | 0.01 | 79 | 1014.5 |
| 20260903165601 | 81 | 159 | 10.0 | 18.0 | 0.00 | 0.01 | 0.01 | 80 | 1014.4 |
| 20260903165058 | 81 | 152 | 16.0 | 17.0 | 0.00 | 0.01 | 0.01 | 81 | 1014.5 |
| 20260903164552 | 81 | 158 | 9.0 | 15.0 | 0.00 | 0.01 | 0.01 | 82 | 1014.6 |
| 20260903164049 | 80 | 146 | 13.0 | 20.0 | 0.00 | 0.01 | 0.01 | 83 | 1014.5 |
| 20260903163548 | 80 | 146 | 13.0 | 20.0 | 0.00 | 0.01 | 0.01 | 83 | 1014.5 |
| 20260903163045 | 81 | 163 | 11.0 | 17.0 | 0.00 | 0.01 | 0.01 | 83 | 1014.5 |
| 20260903162541 | 80 | 173 | 10.0 | 19.0 | 0.00 | 0.01 | 0.01 | 84 | 1014.5 |
| 20260903162036 | 80 | 134 | 8.0 | 17.0 | 0.00 | 0.01 | 0.01 | 84 | 1014.3 |
| 20260903161532 | 80 | 167 | 13.0 | 20.0 | 0.00 | 0.01 | 0.01 | 84 | 1014.6 |
| 20260903161028 | 80 | 153 | 15.0 | 20.0 | 0.00 | 0.01 | 0.01 | 85 | 1014.3 |
| 20260903160526 | 80 | 148 | 16.0 | 19.0 | 0.00 | 0.01 | 0.01 | 84 | 1014.5 |
| 20260903160021 | 80 | 153 | 11.0 | 16.0 | 0.00 | 0.01 | 0.01 | 85 | 1014.3 |
| 20260903155514 | 80 | 143 | 10.0 | 17.0 | 0.00 | 0.01 | 0.01 | 85 | 1014.2 |
| 20260903155010 | 80 | 150 | 12.0 | 20.0 | 0.00 | 0.01 | 0.01 | 86 | 1014.2 |
| 20260903154506 | 80 | 147 | 22.0 | 23.0 | 0.00 | 0.01 | 0.01 | 85 | 1014.1 |
| 20260903154001 | 80 | 140 | 14.0 | 16.0 | 0.00 | 0.01 | 0.01 | 85 | 1014.1 |
| 20260903153457 | 80 | 149 | 13.0 | 16.0 | 0.00 | 0.01 | 0.01 | 86 | 1014.0 |
| 20260903152952 | 79 | 148 | 15.0 | 21.0 | 0.00 | 0.01 | 0.01 | 86 | 1014.1 |
| 20260903152448 | 79 | 139 | 10.0 | 17.0 | 0.00 | 0.01 | 0.01 | 87 | 1014.1 |
| 20260903151945 | 79 | 168 | 9.0 | 13.0 | 0.00 | 0.01 | 0.01 | 87 | 1014.0 |
| 20260903151444 | 79 | 147 | 13.0 | 16.0 | 0.00 | 0.01 | 0.01 | 87 | 1014.1 |
| 20260903150939 | 79 | 152 | 10.0 | 12.0 | 0.00 | 0.01 | 0.01 | 88 | 1014.0 |
| 20260903150440 | 79 | 148 | 9.0 | 13.0 | 0.00 | 0.01 | 0.01 | 88 | 1014.2 |
| 20260903145940 | 78 | 126 | 4.0 | 15.0 | 0.00 | 0.01 | 0.01 | 88 | 1014.1 |
| 20260903145435 | 78 | 159 | 9.0 | 13.0 | 0.00 | 0.01 | 0.01 | 89 | 1014.1 |
| 20260903144930 | 78 | 161 | 13.0 | 14.0 | 0.00 | 0.01 | 0.01 | 90 | 1014.2 |
| 20260903144429 | 78 | 139 | 7.0 | 11.0 | 0.00 | 0.01 | 0.01 | 90 | 1014.1 |
| 20260903143925 | 79 | 152 | 8.0 | 11.0 | 0.00 | 0.01 | 0.01 | 90 | 1014.2 |
| 20260903143422 | 79 | 137 | 6.0 | 15.0 | 0.00 | 0.01 | 0.01 | 90 | 1014.2 |
| 20260903142917 | 79 | 149 | 8.0 | 14.0 | 0.00 | 0.01 | 0.01 | 90 | 1014.1 |
| 20260903142412 | 79 | 161 | 9.0 | 12.0 | 0.00 | 0.01 | 0.01 | 90 | 1014.2 |
| 20260903141909 | 79 | 170 | 5.0 | 9.0 | 0.00 | 0.01 | 0.01 | 90 | 1014.2 |
| 20260903141404 | 79 | 168 | 5.0 | 10.0 | 0.00 | 0.01 | 0.01 | 90 | 1014.3 |
| 20260903140900 | 79 | 163 | 6.0 | 12.0 | 0.00 | 0.01 | 0.01 | 90 | 1014.1 |
| 20260903140354 | 79 | 148 | 8.0 | 12.0 | 0.00 | 0.01 | 0.01 | 90 | 1014.2 |
| 20260903135850 | 79 | 175 | 9.0 | 12.0 | 0.00 | 0.01 | 0.01 | 90 | 1014.1 |
| 20260903135345 | 79 | 153 | 9.0 | 16.0 | 0.00 | 0.01 | 0.01 | 90 | 1014.1 |
| 20260903134844 | 79 | 189 | 5.0 | 15.0 | 0.00 | 0.01 | 0.01 | 90 | 1014.2 |
| 20260903134340 | 79 | 162 | 8.0 | 12.0 | 0.00 | 0.01 | 0.01 | 90 | 1013.9 |
| 20260903133837 | 79 | 164 | 8.0 | 13.0 | 0.00 | 0.01 | 0.01 | 91 | 1013.9 |
| 20260903133328 | 78 | 158 | 9.0 | 13.0 | 0.00 | 0.01 | 0.01 | 92 | 1014.0 |
| 20260903132827 | 78 | 149 | 6.0 | 11.0 | 0.00 | 0.01 | 0.01 | 92 | 1014.2 |
| 20260903132324 | 78 | 126 | 2.0 | 6.0 | 0.00 | 0.01 | 0.01 | 92 | 1014.3 |
| 20260903131818 | 78 | 150 | 0.0 | 6.0 | 0.00 | 0.01 | 0.01 | 92 | 1014.3 |
| 20260903131318 | 78 | 152 | 2.0 | 4.0 | 0.00 | 0.01 | 0.01 | 92 | 1014.2 |
| 20260903130812 | 78 | 92 | 1.0 | 5.0 | 0.00 | 0.01 | 0.01 | 93 | 1014.1 |
| 20260903130312 | 78 | 121 | 2.0 | 6.0 | 0.00 | 0.01 | 0.01 | 93 | 1014.1 |
| 20260903125810 | 78 | 115 | 3.0 | 6.0 | 0.00 | 0.01 | 0.01 | 93 | 1013.6 |
| 20260903125306 | 77 | 136 | 4.0 | 7.0 | 0.00 | 0.01 | 0.01 | 93 | 1013.5 |
| 20260903124805 | 77 | 110 | 4.0 | 10.0 | 0.00 | 0.01 | 0.01 | 93 | 1013.5 |
| 20260903124301 | 77 | 149 | 6.0 | 11.0 | 0.00 | 0.01 | 0.01 | 93 | 1013.5 |
| 20260903123759 | 77 | 132 | 6.0 | 11.0 | 0.00 | 0.01 | 0.01 | 93 | 1013.4 |
| 20260903123259 | 77 | 150 | 7.0 | 9.0 | 0.00 | 0.01 | 0.01 | 93 | 1013.7 |
| 20260903122757 | 77 | 134 | 2.0 | 6.0 | 0.00 | 0.01 | 0.01 | 93 | 1013.9 |
| 20260903122253 | 77 | 117 | 4.0 | 5.0 | 0.00 | 0.01 | 0.01 | 93 | 1013.7 |
| 20260903121750 | 77 | 110 | 2.0 | 7.0 | 0.00 | 0.01 | 0.01 | 93 | 1013.5 |
| 20260903121247 | 77 | 132 | 6.0 | 8.0 | 0.00 | 0.01 | 0.01 | 93 | 1013.5 |
| 20260903120742 | 77 | 120 | 3.0 | 6.0 | 0.00 | 0.01 | 0.01 | 93 | 1013.5 |
| 20260903120236 | 77 | 131 | 4.0 | 9.0 | 0.00 | 0.01 | 0.01 | 93 | 1013.5 |
| 20260903115734 | 77 | 122 | 3.0 | 11.0 | 0.00 | 0.01 | 0.01 | 93 | 1013.6 |
| 20260903115230 | 77 | 106 | 3.0 | 10.0 | 0.00 | 0.01 | 0.01 | 93 | 1013.5 |
| 20260903114724 | 77 | 139 | 9.0 | 11.0 | 0.00 | 0.01 | 0.01 | 93 | 1013.3 |
| 20260903114220 | 77 | 147 | 9.0 | 11.0 | 0.00 | 0.01 | 0.01 | 93 | 1013.3 |
| 20260903113715 | 77 | 157 | 7.0 | 11.0 | 0.00 | 0.01 | 0.01 | 93 | 1013.2 |
| 20260903113211 | 77 | 137 | 6.0 | 9.0 | 0.00 | 0.01 | 0.01 | 93 | 1013.3 |
| 20260903112707 | 77 | 146 | 7.0 | 11.0 | 0.00 | 0.01 | 0.01 | 93 | 1013.3 |
| 20260903112202 | 77 | 144 | 5.0 | 8.0 | 0.00 | 0.01 | 0.01 | 93 | 1013.2 |
| 20260903111700 | 77 | 144 | 6.0 | 9.0 | 0.00 | 0.01 | 0.01 | 93 | 1013.1 |
| 20260903111156 | 77 | 147 | 7.0 | 14.0 | 0.00 | 0.01 | 0.01 | 93 | 1013.2 |
| 20260903110652 | 77 | 138 | 10.0 | 11.0 | 0.00 | 0.01 | 0.01 | 93 | 1013.2 |
| 20260903110142 | 76 | 132 | 8.0 | 12.0 | 0.00 | 0.01 | 0.01 | 94 | 1013.1 |
| 20260903105636 | 76 | 152 | 6.0 | 11.0 | 0.00 | 0.01 | 0.01 | 94 | 1013.2 |
| 20260903105131 | 76 | 147 | 9.0 | 11.0 | 0.00 | 0.01 | 0.01 | 94 | 1013.2 |
| 20260903104631 | 76 | 137 | 4.0 | 10.0 | 0.00 | 0.01 | 0.01 | 95 | 1013.0 |
| 20260903104127 | 76 | 161 | 7.0 | 10.0 | 0.00 | 0.01 | 0.01 | 95 | 1012.9 |
| 20260903103622 | 76 | 160 | 6.0 | 6.0 | 0.00 | 0.01 | 0.01 | 95 | 1013.0 |
| 20260903103119 | 76 | 116 | 2.0 | 5.0 | 0.00 | 0.01 | 0.01 | 95 | 1013.0 |
| 20260903102614 | 76 | 138 | 2.0 | 4.0 | 0.00 | 0.01 | 0.01 | 95 | 1013.1 |
| 20260903102113 | 76 | 120 | 3.0 | 5.0 | 0.00 | 0.01 | 0.01 | 95 | 1012.9 |
| 20260903101612 | 76 | 113 | 2.0 | 6.0 | 0.00 | 0.01 | 0.01 | 95 | 1012.9 |
| 20260903101109 | 76 | 135 | 2.0 | 4.0 | 0.00 | 0.01 | 0.01 | 95 | 1012.9 |
| 20260903100608 | 76 | 160 | 4.0 | 6.0 | 0.00 | 0.01 | 0.01 | 95 | 1012.9 |
| 20260903100108 | 76 | 138 | 4.0 | 8.0 | 0.00 | 0.01 | 0.01 | 95 | 1013.1 |
| 20260903095606 | 76 | 159 | 5.0 | 7.0 | 0.00 | 0.01 | 0.01 | 95 | 1012.9 |
| 20260903095105 | 76 | 132 | 3.0 | 6.0 | 0.00 | 0.01 | 0.01 | 95 | 1013.0 |
| 20260903094600 | 76 | 132 | 3.0 | 6.0 | 0.00 | 0.01 | 0.01 | 96 | 1013.0 |
| 20260903094056 | 76 | 148 | 3.0 | 6.0 | 0.00 | 0.01 | 0.01 | 96 | 1013.0 |
| 20260903093556 | 76 | 130 | 4.0 | 6.0 | 0.00 | 0.01 | 0.01 | 96 | 1013.1 |
| 20260903093051 | 76 | 131 | 1.0 | 6.0 | 0.00 | 0.01 | 0.01 | 96 | 1013.1 |
| 20260903092550 | 76 | 120 | 3.0 | 6.0 | 0.00 | 0.01 | 0.01 | 96 | 1013.1 |
| 20260903092045 | 76 | 111 | 3.0 | 4.0 | 0.00 | 0.01 | 0.01 | 96 | 1013.1 |
| 20260903091543 | 76 | 125 | 2.0 | 4.0 | 0.00 | 0.01 | 0.01 | 96 | 1012.9 |
| 20260903091038 | 76 | 113 | 2.0 | 4.0 | 0.00 | 0.01 | 0.01 | 96 | 1013.0 |
| 20260903090535 | 75 | 136 | 3.0 | 4.0 | 0.00 | 0.01 | 0.01 | 96 | 1013.0 |
| 20260903090033 | 75 | 129 | 2.0 | 3.0 | 0.00 | 0.01 | 0.01 | 96 | 1012.9 |
| 20260903085531 | 75 | 149 | 5.0 | 5.0 | 0.00 | 0.01 | 0.01 | 96 | 1012.9 |
| 20260903085027 | 75 | 139 | 2.0 | 3.0 | 0.00 | 0.01 | 0.01 | 96 | 1012.8 |
| 20260903084525 | 75 | 122 | 4.0 | 6.0 | 0.00 | 0.01 | 0.01 | 96 | 1013.0 |
| 20260903084020 | 75 | 121 | 3.0 | 5.0 | 0.00 | 0.01 | 0.01 | 96 | 1012.8 |
| 20260903083516 | 75 | 125 | 4.0 | 4.0 | 0.00 | 0.01 | 0.01 | 96 | 1012.9 |
| 20260903083010 | 75 | 135 | 4.0 | 8.0 | 0.00 | 0.01 | 0.01 | 96 | 1012.8 |
| 20260903082504 | 75 | 166 | 1.0 | 5.0 | 0.00 | 0.01 | 0.01 | 96 | 1012.9 |
| 20260903081954 | 75 | 118 | 2.0 | 6.0 | 0.00 | 0.01 | 0.01 | 95 | 1012.7 |
| 20260903081450 | 75 | 127 | 4.0 | 7.0 | 0.00 | 0.01 | 0.01 | 95 | 1012.8 |
| 20260903080946 | 75 | 167 | 4.0 | 6.0 | 0.00 | 0.01 | 0.01 | 95 | 1012.6 |
| 20260903080441 | 75 | 149 | 7.0 | 10.0 | 0.00 | 0.01 | 0.01 | 95 | 1012.9 |
| 20260903075937 | 75 | 154 | 8.0 | 8.0 | 0.00 | 0.01 | 0.01 | 95 | 1012.9 |